When you browse on this site, cookies collect data to enhance your experience and personalize the content and advertising you see.
Visit our Privacy Policy to learn more. By continuing to use the site, you agree to this use of cookies and data.
  • In Hungary
  • List of Countries
  • For 7 days
  • Water Temperature
  • Weather Map
  • News
  • Weather Widgets
  • user-avatar
    Login

    Hourly Weather Neiva

    Today, 16 November, Saturday

    Time Temperature Precipitation Wind Pressure Humidity
    00:00 +23°C° 0.3 mm 0 mps 720 mmHg 86%
    01:00 +23°C° 0 mm 0 mps 719 mmHg 86%
    02:00 +23°C° 0.1 mm 0 mps 719 mmHg 86%
    03:00 +23°C° 0.1 mm 0 mps 719 mmHg 87%
    04:00 +23°C° 0.1 mm 0 mps 718 mmHg 87%
    05:00 +23°C° 0 mm 0 mps 719 mmHg 87%
    06:00 +24°C° 0 mm 0 mps 719 mmHg 87%
    07:00 +24°C° 0 mm 0 mps 720 mmHg 87%
    08:00 +25°C° 0.5 mm 0 mps 720 mmHg 84%
    09:00 +26°C° 0.5 mm 0 mps 720 mmHg 82%
    10:00 +29°C° 0.5 mm 1 mps 720 mmHg 79%
    11:00 +30°C° 0.7 mm 1 mps 719 mmHg 76%
    12:00 +30°C° 0.7 mm 2 mps 718 mmHg 74%
    13:00 +31°C° 0.7 mm 2 mps 718 mmHg 71%
    14:00 +31°C° 0.4 mm 2 mps 717 mmHg 71%
    15:00 +31°C° 0.4 mm 2 mps 717 mmHg 71%
    16:00 +31°C° 0.4 mm 2 mps 717 mmHg 71%
    17:00 +29°C° 0.4 mm 1 mps 717 mmHg 75%
    18:00 +28°C° 0.4 mm 1 mps 718 mmHg 79%
    19:00 +27°C° 0.4 mm 1 mps 718 mmHg 83%
    20:00 +27°C° 0.9 mm 1 mps 719 mmHg 83%
    21:00 +26°C° 0.9 mm 1 mps 719 mmHg 83%
    22:00 +26°C° 0.9 mm 1 mps 720 mmHg 83%
    23:00 +26°C° 1.2 mm 1 mps 719 mmHg 85%

    Tomorrow, 17 November, Sunday

    Time Temperature Precipitation Wind Pressure Humidity
    00:00 +25°C° 1.2 mm 1 mps 719 mmHg 86%
    01:00 +25°C° 1.2 mm 1 mps 719 mmHg 88%
    02:00 +25°C° 0.8 mm 1 mps 718 mmHg 89%
    03:00 +25°C° 0.8 mm 1 mps 718 mmHg 89%
    04:00 +23°C° 0.8 mm 0 mps 718 mmHg 90%
    05:00 +23°C° 0.3 mm 0 mps 719 mmHg 90%
    06:00 +23°C° 0.3 mm 0 mps 719 mmHg 89%
    07:00 +24°C° 0.3 mm 0 mps 720 mmHg 89%
    08:00 +27°C° 0.4 mm 1 mps 720 mmHg 86%
    09:00 +28°C° 0.4 mm 1 mps 720 mmHg 83%
    10:00 +29°C° 0.4 mm 1 mps 720 mmHg 81%
    11:00 +30°C° 0.7 mm 1 mps 719 mmHg 78%
    12:00 +30°C° 0.7 mm 2 mps 718 mmHg 75%
    13:00 +31°C° 0.7 mm 2 mps 717 mmHg 71%
    14:00 +31°C° 0.4 mm 2 mps 717 mmHg 71%
    15:00 +31°C° 0.4 mm 2 mps 717 mmHg 71%
    16:00 +31°C° 0.4 mm 2 mps 716 mmHg 70%
    17:00 +30°C° 0.6 mm 1 mps 717 mmHg 74%
    18:00 +28°C° 0.6 mm 1 mps 717 mmHg 78%
    19:00 +27°C° 0.6 mm 1 mps 718 mmHg 82%
    20:00 +27°C° 0.7 mm 1 mps 718 mmHg 82%
    21:00 +26°C° 0.7 mm 1 mps 719 mmHg 82%
    22:00 +26°C° 0.7 mm 1 mps 719 mmHg 82%
    23:00 +26°C° 1.6 mm 1 mps 719 mmHg 84%

    Day after tomorrow, 18 November, Monday

    Time Temperature Precipitation Wind Pressure Humidity
    00:00 +25°C° 1.6 mm 1 mps 719 mmHg 85%
    01:00 +25°C° 1.6 mm 1 mps 718 mmHg 87%
    02:00 +25°C° 1 mm 1 mps 718 mmHg 87%
    03:00 +23°C° 1 mm 0 mps 718 mmHg 88%
    04:00 +23°C° 1 mm 0 mps 718 mmHg 89%
    05:00 +23°C° 0.5 mm 0 mps 719 mmHg 90%
    06:00 +23°C° 0.5 mm 0 mps 719 mmHg 91%
    07:00 +23°C° 0.5 mm 0 mps 720 mmHg 92%
    08:00 +24°C° 0.2 mm 0 mps 720 mmHg 88%
    09:00 +25°C° 0.2 mm 0 mps 720 mmHg 85%
    10:00 +28°C° 0.2 mm 1 mps 720 mmHg 82%
    11:00 +29°C° 0.3 mm 1 mps 719 mmHg 78%
    12:00 +30°C° 0.3 mm 1 mps 718 mmHg 75%
    13:00 +30°C° 0.3 mm 2 mps 718 mmHg 71%
    14:00 +30°C° 0.2 mm 2 mps 717 mmHg 71%
    15:00 +31°C° 0.2 mm 1 mps 717 mmHg 71%
    16:00 +31°C° 0.2 mm 1 mps 717 mmHg 70%
    17:00 +29°C° 0.6 mm 1 mps 717 mmHg 75%
    18:00 +28°C° 0.6 mm 1 mps 718 mmHg 79%
    19:00 +26°C° 0.6 mm 1 mps 718 mmHg 83%
    20:00 +26°C° 0.6 mm 1 mps 719 mmHg 83%
    21:00 +26°C° 0.6 mm 1 mps 719 mmHg 83%
    22:00 +25°C° 0.6 mm 1 mps 720 mmHg 83%
    23:00 +25°C° 0.9 mm 1 mps 719 mmHg 84%

    19 November, Tuesday

    Time Temperature Precipitation Wind Pressure Humidity
    00:00 +25°C° 0.9 mm 1 mps 719 mmHg 85%
    01:00 +25°C° 0.9 mm 1 mps 719 mmHg 86%
    02:00 +22°C° 0.3 mm 0 mps 719 mmHg 86%
    03:00 +22°C° 0.3 mm 0 mps 719 mmHg 86%
    04:00 +22°C° 0.3 mm 0 mps 719 mmHg 87%
    05:00 +23°C° 0.3 mm 0 mps 719 mmHg 87%
    06:00 +23°C° 0.3 mm 0 mps 720 mmHg 87%
    07:00 +23°C° 0.3 mm 0 mps 720 mmHg 87%
    08:00 +24°C° 0.5 mm 0 mps 721 mmHg 85%
    09:00 +27°C° 0.5 mm 1 mps 721 mmHg 83%
    10:00 +28°C° 0.5 mm 1 mps 721 mmHg 81%
    11:00 +29°C° 0.5 mm 1 mps 720 mmHg 78%
    12:00 +30°C° 0.5 mm 1 mps 720 mmHg 75%
    13:00 +30°C° 0.5 mm 1 mps 719 mmHg 72%
    14:00 +30°C° 0.4 mm 1 mps 719 mmHg 71%
    15:00 +30°C° 0.4 mm 1 mps 718 mmHg 71%
    16:00 +30°C° 0.4 mm 1 mps 718 mmHg 71%
    17:00 +29°C° 1 mm 1 mps 719 mmHg 75%
    18:00 +28°C° 1 mm 1 mps 719 mmHg 78%
    19:00 +26°C° 1 mm 1 mps 720 mmHg 82%
    20:00 +26°C° 1.1 mm 1 mps 720 mmHg 83%
    21:00 +26°C° 1.1 mm 1 mps 720 mmHg 84%
    22:00 +25°C° 1.1 mm 1 mps 721 mmHg 85%
    23:00 +25°C° 1.7 mm 1 mps 720 mmHg 88%

    20 November, Wednesday

    Time Temperature Precipitation Wind Pressure Humidity
    00:00 +25°C° 1.7 mm 1 mps 720 mmHg 90%
    01:00 +24°C° 1.7 mm 1 mps 720 mmHg 93%
    02:00 +24°C° 0.9 mm 1 mps 720 mmHg 93%
    03:00 +24°C° 0.9 mm 1 mps 720 mmHg 93%
    04:00 +24°C° 0.9 mm 1 mps 720 mmHg 93%
    05:00 +25°C° 0.3 mm 1 mps 720 mmHg 91%
    06:00 +25°C° 0.3 mm 1 mps 721 mmHg 89%
    07:00 +25°C° 0.3 mm 1 mps 721 mmHg 87%
    08:00 +26°C° 0.7 mm 1 mps 722 mmHg 85%
    09:00 +27°C° 0.7 mm 1 mps 722 mmHg 82%
    10:00 +28°C° 0.7 mm 1 mps 722 mmHg 80%
    11:00 +29°C° 0.8 mm 1 mps 721 mmHg 77%
    12:00 +30°C° 0.8 mm 1 mps 720 mmHg 75%
    13:00 +30°C° 0.8 mm 1 mps 720 mmHg 72%
    14:00 +30°C° 0.5 mm 1 mps 719 mmHg 72%
    15:00 +30°C° 0.5 mm 1 mps 719 mmHg 72%
    16:00 +28°C° 0.5 mm 0 mps 718 mmHg 72%
    17:00 +27°C° 0.9 mm 0 mps 719 mmHg 76%
    18:00 +28°C° 0.9 mm 1 mps 719 mmHg 79%
    19:00 +26°C° 0.9 mm 1 mps 720 mmHg 83%
    20:00 +26°C° 1.3 mm 1 mps 720 mmHg 84%
    21:00 +25°C° 1.3 mm 1 mps 721 mmHg 85%
    22:00 +25°C° 1.3 mm 1 mps 721 mmHg 86%
    23:00 +25°C° 0.9 mm 1 mps 721 mmHg 87%

    21 November, Thursday

    Time Temperature Precipitation Wind Pressure Humidity
    00:00 +25°C° 0.9 mm 1 mps 721 mmHg 87%
    01:00 +25°C° 0.9 mm 1 mps 720 mmHg 88%
    02:00 +25°C° 0.4 mm 1 mps 720 mmHg 88%
    03:00 +24°C° 0.4 mm 1 mps 720 mmHg 87%
    04:00 +24°C° 0.4 mm 1 mps 720 mmHg 87%
    05:00 +24°C° 0.1 mm 1 mps 720 mmHg 86%
    06:00 +23°C° 0.1 mm 0 mps 721 mmHg 86%
    07:00 +23°C° 0.1 mm 0 mps 721 mmHg 85%
    08:00 +24°C° 0.2 mm 0 mps 721 mmHg 83%
    09:00 +25°C° 0.2 mm 0 mps 722 mmHg 80%
    10:00 +28°C° 0.2 mm 1 mps 722 mmHg 78%
    11:00 +29°C° 0.3 mm 1 mps 721 mmHg 75%
    12:00 +30°C° 0.3 mm 1 mps 720 mmHg 72%
    13:00 +31°C° 0.3 mm 1 mps 719 mmHg 68%
    14:00 +31°C° 0.4 mm 1 mps 718 mmHg 69%
    15:00 +30°C° 0.4 mm 1 mps 718 mmHg 69%
    16:00 +30°C° 0.4 mm 1 mps 717 mmHg 70%
    17:00 +29°C° 0.4 mm 1 mps 718 mmHg 74%
    18:00 +27°C° 0.4 mm 1 mps 718 mmHg 78%
    19:00 +26°C° 0.4 mm 1 mps 719 mmHg 82%
    20:00 +26°C° 0.2 mm 1 mps 719 mmHg 82%
    21:00 +25°C° 0.2 mm 1 mps 720 mmHg 82%
    22:00 +25°C° 0.2 mm 1 mps 720 mmHg 82%
    23:00 +25°C° 0.1 mm 1 mps 720 mmHg 82%
    Show more